Regional Weather Roundup
Issued by NWS

Home | Current Version | Previous Version | Text Only | Print | Product List | Glossary On
Versions: 1 2 3 4 5 6 7 8 9 10 11 12 13 14 15 16 17 18 19 20 21 22 23 24 25 26 27 28 29 30 31 32 33 34 35 36 37 38 39 40 41 42 43 44 45 46 47 48 49 50
000
ASUS43 KMKX 060511
RWRWI

WISCONSIN REGIONAL WEATHER ROUNDUP
NATIONAL WEATHER SERVICE MILWAUKEE/SULLIVAN WI
1200 AM CDT MON JUL 06 2015

NOTE: "FAIR" INDICATES FEW OR NO CLOUDS BELOW 12,000 FEET WITH NO
SIGNIFICANT WEATHER AND/OR OBSTRUCTIONS TO VISIBILITY.

WIZ001-002-006>008-014>016-023>028-060600-
NORTHWEST WISCONSIN

CITY           SKY/WX    TMP DP  RH WIND       PRES   REMARKS
SUPERIOR ARPT  RAIN      66  66  99 S3        29.83R
ASHLAND        LGT RAIN  71  69  93 SW7       29.82R
HAYWARD        CLOUDY    75  65  70 S12       29.86R THUNDER
SIREN          CLOUDY    76  65  68 S10       29.84R
CUMBERLAND     MOCLDY    70  64  83 S5        29.88R
RICE LAKE      MOCLDY    72  65  79 CALM      29.89R
CHETEK         PTCLDY    72  66  83 SE5       29.88R
LADYSMITH      CLOUDY    72  64  77 S3        29.90R
EAU CLAIRE     CLEAR     73  65  75 S6        29.86R
MENOMONIE      PTCLDY    74  65  74 S6        29.86R
NEW RICHMOND   CLOUDY    73  65  75 S6        29.87R
OSCEOLA        CLOUDY    76  66  72 S5        29.87R
$$

WIZ003>005-009-010-017-018-060600-
NORTH CENTRAL WISCONSIN

CITY           SKY/WX    TMP DP  RH WIND       PRES   REMARKS
MANITOWISH WTR CLOUDY    69  64  84 S8        29.90R
ARBOR VITAE    MOCLDY    72  65  79 S9        29.91S
WOODRUFF       MOCLDY    72  65  79 S9        29.91S
RHINELANDER    PTCLDY    70  62  76 S9        29.92F
EAGLE RIVER    MOCLDY    70  61  73 SW5       29.91R
LAND O LAKES   MOCLDY    70  61  73 S5        29.92R
PHILLIPS       CLOUDY    70  64  81 SW5       29.89R
TOMAHAWK       PTCLDY    66  62  86 CALM      29.92R
MEDFORD        PTCLDY    68  64  86 S7        29.90F
MERRILL        CLEAR     70  64  83 S5        29.93S
$$

WIZ029-030-035-036-043>047-060600-
CENTRAL WISCONSIN

CITY           SKY/WX    TMP DP  RH WIND       PRES   REMARKS
WAUSAU         CLEAR     72  64  76 S12       29.91R
MOSINEE        CLEAR     66  63  88 S6        29.93S
MARSHFIELD     CLEAR     69  62  78 S8        29.91S
STEVENS POINT  CLEAR     68  62  81 S8        29.93S
WAUPACA        CLEAR     69  65  88 S3        29.93S
WAUTOMA        CLEAR     69  66  90 CALM      29.94R
WISC RAPIDS    CLEAR     70  62  76 S7        29.93S
CAMP DOUGLAS   CLEAR     70  70 100 S6        29.90F
$$

WIZ011>013-019>022-031-037>040-048>050-060600-
NORTHEAST WISCONSIN

CITY           SKY/WX    TMP DP  RH WIND       PRES   REMARKS
ANTIGO         CLEAR     65  63  91 S8        29.94S
SHAWANO        CLEAR     72  64  75 CALM      29.93R
OCONTO         CLEAR     69  65  88 S6        29.92S
STURGEON BAY   CLEAR     64  57  77 S8        29.97S
GREEN BAY      CLEAR     69  62  78 S8        29.93F
MANITOWOC      CLEAR     64  60  87 MISG      29.97R
APPLETON       CLEAR     70  61  73 S9        29.94F
CLINTONVILLE   CLEAR     70  63  78 S6        29.92S
OSHKOSH        CLEAR     68  62  81 SW5       29.94F
$$

WIZ032>034-041-042-053>061-060600-
SOUTHWEST WISCONSIN

CITY           SKY/WX    TMP DP  RH WIND       PRES   REMARKS
LA CROSSE      CLEAR     74  66  76 S10G18    29.87F
SPARTA         CLEAR     72  63  72 S7        29.90F
VIROQUA        CLEAR     69  65  86 S9        29.94S
BOSCOBEL       CLEAR     73  65  75 S3        29.93R HAZE
PRAIRIE DU CHI CLEAR     72  64  74 SE6       29.92S
PLATTEVILLE    PTCLDY    69  66  89 SE9       29.95F
$$

WIZ056-057-062-063-064-067-068-060600-
SOUTH CENTRAL WISCONSIN

CITY           SKY/WX    TMP DP  RH WIND       PRES   REMARKS
REEDSBURG      CLEAR     69  64  84 S6        29.94R
BARABOO/DELLS  CLEAR     69  62  80 S7        29.94S
LONE ROCK      CLEAR     72  64  76 VRB3      29.94S
MINERAL POINT  PTCLDY    70  64  83 S8        29.96S
MADISON        CLEAR     72  63  73 S8        29.95S
MIDDLETON      CLEAR     71  62  72 SW3       29.97R
WATERTOWN      CLEAR     67  67 100 S3        29.96R
MONROE         CLEAR     68  63  83 S10       29.98S
JANESVILLE     CLEAR     68  61  77 S5        29.96F
$$

WIZ051-052-058>065-066-070>072-060600-
SOUTHEAST WISCONSIN

CITY           SKY/WX    TMP DP  RH WIND       PRES   REMARKS
MILWAUKEE      PTCLDY    68  59  73 S8        29.98F
WAUKESHA       CLEAR     66  59  77 S7        29.98F
MILWAUKEE/TIMM CLEAR     68  57  68 S7        29.98F
RACINE         CLEAR     69  59  70 S7        30.00F
BURLINGTON     CLEAR     64  61  90 S6        29.98F
KENOSHA        CLEAR     68  60  75 S6        30.00F
FOND DU LAC    CLEAR     69  62  78 S8        29.95S
SHEBOYGAN      CLEAR     64  58  80 S5        29.96S
WEST BEND      CLEAR     64  59  82 SW5       29.97S
JUNEAU         CLEAR     67  62  83 S9        29.97S
$$

LSZ147-162-060600-
LAKE SUPERIOR

STATION/POSITION TIME  TEMP    WIND        PRES    WAVE
                       AIR SEA DIR/SP/G            HT/PER
                 (UTC) (F)     (DEG/KT/KT) (MB)    (FT/S)
W MID LAKE BUOY  0450   56 39  220/  6/  8 1008.6R   0
DEVILS ISLAND    0500   65     260/ 13/ 15 1009.4R
PORT WING        0400   71     330/ 24     1009.5
SAXON HARBOR     0440   78     190/ 10/ 19 1008.5S
$$

LMZ867-665-643>646-060600-
LAKE MICHIGAN

STATION/POSITION TIME  TEMP    WIND        PRES    WAVE
                       AIR SEA DIR/SP/G            HT/PER
                 (UTC) (F)     (DEG/KT/KT) (MB)    (FT/S)
CHAMBERS ISLAND  0400   71     160/  6/ 13 1013.2F
S GREEN BAY BUOY 0500   71 69  180/ 14/ 19 1014.8
N MID LAKE BUOY  0450   57 50  200/ 12/ 14 1014.0F   2/ 4
NORTHPORT PIER   0400   65     150/  7/ 11 1013.9F
SISTER BAY       0429   66     140/ 12/ 14   N/A
ALGOMA LAKESHORE 0411          210/ 11/ 13   N/A
KEWAUNEE LAKESHO 0400   62     190/ 10/ 12 1013.6F
SHEBOYGAN LAKESH 0500   63     180/ 14/ 15 1014.7F
PORT WASHINGTON  0400   63     190/  5/  7 1015.9F
ATWATER BUOY     0500   64 59  170/ 10/ 10 1016.1F
MILWAUKEE LAKESH 0400   69     180/  8/  8   N/A
KENOSHA   LAKESH 0500   67     180/ 11/ 14 1015.2F
$$

TC  - TEMPERATURE IN CELSIUS
VSB - VISIBILITY IN STATUTE MILES
WCI - WIND CHILL INDEX
HX  - HEAT INDEX




USA.gov is the U.S. government's official web portal to all federal, state and local government web resources and services.